Location: Vancouver
(49.2500°N, 123.1330°W)
Time: 23:46:08
(UTC-07:00)

Daily predictions for brighter satellites

Satellite Brightness Start Highest point End
(mag) Time Altitude Azimuth Time Altitude Azimuth Time Altitude Azimuth
In-Cosmos 22 4.5 20:08:37 10° NNW 20:13:55 70° W 20:19:09 10° S
Cosmos 1867 3.8 20:09:49 10° SSW 20:15:05 52° ESE 20:20:24 10° NE
USA 267 4.1 20:10:39 10° ENE 20:16:49 46° N 20:22:59 10° WNW
CZ-4B DEB 4.1 20:15:01 10° ESE 20:17:28 22° ENE 20:19:55 10° NNE
Envisat 3.8 20:13:28 10° SE 20:17:57 33° ENE 20:22:28 10° N
Lacrosse 5 rocket 1.7 20:17:29 10° WNW 20:21:27 57° SW 20:25:09 10° SE
Cosmos 1939 Rocket 4.2 20:18:15 10° ESE 20:21:38 25° ENE 20:25:02 10° N
SeaSat 1 2.7 20:16:45 10° SSE 20:21:41 75° WSW 20:26:39 10° NNW
Cosmos 1605 Rocket 4.1 20:16:35 10° S 20:22:54 87° E 20:29:21 10° N
Helios 1B rocket 3.4 20:20:54 10° NE 20:24:23 26° E 20:27:50 10° SSE
Cosmos 2151 4.4 20:21:51 10° NNE 20:25:04 20° ENE 20:28:05 11° ESE
Cosmos 1844 Rocket 4.4 20:20:08 10° WSW 20:25:18 36° NW 20:30:28 10° NNE
ISS -2.6 20:23:12 10° SSW 20:25:57 25° SE 20:28:31 11° E
Cosmos 2369 Rocket 3.9 20:25:15 10° ESE 20:27:05 12° E 20:28:55 10° ENE
Cosmos 1048 Rocket 4.3 20:22:11 10° NNW 20:27:17 68° WSW 20:32:22 10° S
ERS-1 Rocket 4.2 20:23:23 10° ESE 20:27:21 24° ENE 20:31:18 10° N
CZ-2D R/B 3.2 20:23:30 10° SSE 20:27:22 71° ENE 20:31:17 10° N
Cosmos 2100 Rocket 4.3 20:22:03 10° SSE 20:28:01 45° E 20:34:03 10° NNE
Cosmos 1408 Rocket 3.6 20:23:59 10° N 20:28:29 74° E 20:32:56 10° SSE
Cosmos 1125 Rocket 3.4 20:23:56 10° SSW 20:29:06 74° ESE 20:34:21 10° NNE
HJ-1C 4.4 20:26:16 10° S 20:29:36 51° W 20:32:59 10° NNW
FENGYUN 3A 4.2 20:24:57 10° S 20:30:17 63° WSW 20:35:39 10° NNW
Cosmos 1805 3.4 20:26:23 10° SSW 20:30:17 81° W 20:34:14 10° N
BREEZE-M DEB (TANK) 1.7 20:30:38 10° W 20:32:59 82° SSW 20:35:07 15° ESE
Cosmos 1833 Rocket 3.1 20:28:24 10° NNW 20:33:59 66° WSW 20:39:33 10° SSE
Lacrosse 4 Rocket 4.0 20:31:41 10° W 20:34:47 21° NW 20:37:56 10° N
Resurs 1-3 3.8 20:33:31 10° S 20:37:54 79° WSW 20:42:20 10° NNW
Cosmos 1733 3.4 20:38:08 10° S 20:41:53 49° E 20:45:40 10° NNE
SWAS 4.4 20:37:49 10° SSW 20:42:04 62° ESE 20:46:21 10° NE
H-2A R/B 4.1 20:40:42 10° ENE 20:42:53 13° NE 20:45:03 10° NNE
Cosmos 1076 Rocket 4.2 20:39:14 10° NNW 20:43:25 56° W 20:47:32 10° S
Meteor 1-29 3.7 20:43:28 10° NNE 20:46:38 31° E 20:49:47 10° SSE
ATLAS 5 CENTAUR R/B 1.9 20:43:11 10° SSW 20:47:51 59° SE 20:52:59 10° NE
Cosmos 1842 Rocket 4.3 20:44:56 10° SSE 20:48:50 32° E 20:52:45 10° NNE
Cosmos 1470 2.7 20:45:36 10° S 20:49:32 64° E 20:53:28 10° NNE
Cosmos 2278 Rocket 3.3 20:45:08 10° SW 20:50:36 48° NW 20:56:08 10° NNE
Cosmos 1802 Rocket 4.1 20:47:12 10° SSE 20:53:07 54° E 20:59:09 10° NNE
Helios 1A 3.0 20:50:52 10° SSE 20:55:03 89° W 20:59:18 10° NNW
ATLAS CENTAUR R/B 3.0 20:55:09 10° N 20:55:41 11° NNE 20:56:18 10° NE
H-2A R/B 4.4 20:56:23 10° SSW 21:00:01 36° W 21:03:43 10° NNW
Coronas F rocket 3.3 20:59:56 10° NNE 21:00:22 12° NE 21:00:22 12° NE
Cosmos 1340 Rocket 3.2 20:59:51 10° NNW 21:03:51 66° W 21:07:48 10° S
Lacrosse 5 2.7 20:59:02 10° W 21:03:58 50° NNW 21:08:55 10° NE
SAR-Lupe-4 4.1 21:01:38 10° S 21:05:10 61° WSW 21:08:46 10° NNW
Cosmos 1356 Rocket 3.3 21:02:49 10° N 21:06:56 68° ENE 21:09:53 18° SSE
Cosmos 2297 4.2 21:04:27 10° SW 21:10:08 66° WNW 21:15:54 10° NNE
Cosmos 1459 Rocket 3.9 21:04:16 10° S 21:10:31 83° E 21:16:41 10° N
YAOGAN 6 3.1 21:09:57 29° ESE 21:11:19 41° ENE 21:14:52 10° N
SJ-11-01 4.2 21:07:15 11° SSE 21:11:45 82° ENE 21:16:29 10° NNW
Cosmos 372 Rocket 4.3 21:06:49 10° SSW 21:11:55 67° WNW 21:17:06 10° NNE
Cosmos 2061 Rocket 4.0 21:06:03 10° S 21:12:27 79° E 21:18:55 10° NNE
Cosmos 2251 Rocket 3.6 21:07:12 10° NNW 21:12:34 86° WSW 21:17:07 15° SSE
SPOT 5 3.9 21:10:41 23° ESE 21:13:04 33° ENE 21:17:43 10° N
Terra 3.9 21:14:14 12° ENE 21:15:07 12° NE 21:16:55 10° NNE
Cosmos 2082 Rocket 4.0 21:11:33 10° NW 21:16:24 30° WSW 21:21:13 10° SSW
Sich 1 4.5 21:13:32 10° NNE 21:16:55 21° ENE 21:17:21 21° ENE
Cosmos-2242 3.5 21:13:11 10° SSW 21:17:23 63° WNW 21:21:40 10° N
Meteor 2-17 Rocket 4.4 21:13:25 10° S 21:19:31 70° E 21:25:38 10° NNE
BREEZE-M DEB 4.1 21:15:42 10° W 21:19:40 89° ENE 21:20:23 49° E
ARGOS 3.9 21:17:53 25° ESE 21:20:00 34° ENE 21:24:46 10° N
Cosmos 2173 Rocket 4.0 21:13:58 10° S 21:20:11 87° W 21:26:32 10° N
SL-14 R/B 3.2 21:19:50 10° N 21:23:43 85° W 21:26:15 21° S
USA 215 3.9 21:18:18 10° ENE 21:23:52 29° SE 21:29:24 10° S
Cosmos 1271 Rocket 3.7 21:21:34 10° SSW 21:25:29 52° WNW 21:29:27 10° N
Cosmos 1633 Rocket 4.4 21:22:38 10° NNE 21:26:09 22° ENE 21:26:17 22° ENE
USA 186 4.0 21:26:36 10° SW 21:28:02 15° W 21:29:31 10° NW
GP-B 4.4 21:26:36 10° SSW 21:30:48 41° W 21:35:03 10° NNW
Cosmos 1184 Rocket 4.0 21:29:32 10° NNW 21:32:45 41° W 21:35:10 16° SSW
Cosmos 389 Rocket 2.3 21:32:05 41° SSE 21:33:07 68° E 21:36:39 10° NNE
Cosmos 1328 4.3 21:29:30 10° NNW 21:33:25 58° W 21:36:23 16° S
Meteor 1-11 4.2 21:29:16 10° NNW 21:34:53 85° W 21:39:11 18° S
Meteor 1-16 Rocket 4.2 21:29:06 10° S 21:34:59 81° E 21:40:57 10° NNE
Cosmos 2221 3.0 21:34:55 39° E 21:35:03 39° E 21:39:10 10° NNE
Cosmos 2058 2.8 21:36:06 10° N 21:40:18 87° E 21:41:47 39° SSE
Resurs 01 Rocket 4.4 21:39:03 10° SW 21:42:01 18° W 21:45:01 10° NW
Cosmos 1626 2.2 21:40:52 10° N 21:44:35 58° ENE 21:44:35 58° ENE
CZ-3B DEB 2.8 21:38:52 10° W 21:46:23 49° NNW 21:48:50 21° NE
Cosmos 1500 Rocket 4.4 21:43:50 10° NNW 21:48:00 47° W 21:51:15 16° SSW
H-2A R/B 3.4 21:51:00 24° NE 21:51:00 24° NE 21:53:50 10° N
Cosmos 1805 Rocket 3.5 21:47:41 10° N 21:52:06 62° ENE 21:52:37 57° ESE
Cosmos 2016 Rocket 4.2 21:46:28 10° SSW 21:52:39 70° WNW 21:58:47 10° N
Gblst 52 Del rocket 4.4 21:47:12 10° SW 21:52:44 46° SE 21:53:20 44° SE
Cosmos 1703 3.1 21:49:47 10° N 21:53:45 84° E 21:54:06 73° SSE
Cosmos 2297 Rocket 4.4 21:52:29 10° N 21:55:01 13° NNE 21:57:35 10° NE
Cosmos 1939 Rocket 4.3 21:53:28 16° SSW 21:56:24 38° W 22:00:19 10° NNW
Envisat 4.2 21:52:08 10° SSW 21:56:54 40° W 22:01:41 10° NNW
USA 267 3.4 21:56:11 32° E 21:59:19 65° NNE 22:05:48 10° WNW
Helios 1B rocket 4.1 21:55:59 10° N 21:59:45 35° WNW 22:03:30 10° SW
ISS -2.8 21:58:54 10° WSW 22:01:12 42° W 22:01:12 42° W
CZ-4C R/B 2.3 21:57:18 10° SSW 22:02:39 49° ESE 22:08:15 10° NE
Cosmos 2151 4.0 21:58:34 10° NNW 22:02:38 44° W 22:04:43 25° SSW
Cosmos 1725 Rocket 4.0 21:56:54 10° S 22:03:08 82° W 22:09:22 10° N
Meteor 2-1 Rocket 4.1 22:00:06 21° S 22:04:03 83° ESE 22:09:43 10° NNE
ERS-1 Rocket 3.4 22:03:12 28° S 22:05:47 58° WSW 22:10:46 10° NNW
MetOp-B 4.1 22:04:26 43° SSE 22:06:16 86° WSW 22:11:40 10° NNW
Cosmos 2369 Rocket 2.0 22:04:28 10° SSW 22:10:04 70° ESE 22:15:40 10° NNE
Nimbus 7 Rocket 4.5 22:05:53 10° NNE 22:11:36 51° E 22:11:50 51° ESE
Cosmos 1833 4.1 22:08:26 10° NNW 22:14:05 72° ENE 22:15:00 59° ESE
Cosmos 2346 Rocket 4.4 22:08:24 10° N 22:14:39 88° W 22:17:02 41° S
Cosmos 1190 Rocket 4.3 22:15:29 10° NNW 22:20:41 51° ENE 22:20:50 51° ENE
H-2A R/B 2.1 22:21:02 63° E 22:21:22 64° ENE 22:26:34 10° N
SL-24 R/B - RUBIN 2 4.3 22:15:57 10° NW 22:22:08 65° NE 22:22:58 58° E
Cosmos 2227 Rocket 3.9 22:18:13 10° N 22:22:18 20° NE 22:23:35 18° NE
Cosmos 1943 Rocket 3.0 22:31:54 37° NE 22:31:54 37° NE 22:35:27 10° NE
Cosmos 2263 4.0 22:31:39 74° ESE 22:31:39 74° ESE 22:37:19 10° NNE
BREEZE-M DEB (TANK) 4.3 22:26:39 10° WSW 22:31:45 68° SSE 22:54:08 10° E
ATLAS 5 CENTAUR R/B 3.5 22:28:21 10° W 22:32:51 34° NNW 22:37:49 10° NE
Landsat 7 4.0 22:37:22 62° NNE 22:37:22 62° NNE 22:41:31 10° N
SL-08 RB Rocket 4.0 22:40:57 66° W 22:40:57 66° W 22:45:28 10° NNW
Lacrosse 5 3.3 22:43:11 10° WNW 22:47:49 34° N 22:49:23 28° NE
SPOT 5 3.9 22:49:56 40° SW 22:50:58 44° W 22:56:02 10° NNW
ATLAS 3B R/B 4.1 22:54:40 25° ENE 22:54:40 25° ENE 22:57:40 10° NE
Terra 2.4 22:53:06 51° N 22:53:06 51° N 22:56:47 10° N
Sich 1 4.0 22:50:38 10° NNW 22:54:22 45° WNW 22:54:22 45° WNW
ARGOS 4.0 22:59:23 40° WSW 23:00:09 42° W 23:05:14 10° NNW
Cosmos 407 Rocket 3.8 22:55:57 10° NNW 23:00:30 66° NNW 23:00:30 66° NNW
Cosmos 1633 Rocket 4.3 22:59:56 10° NNW 23:03:23 40° WNW 23:03:23 40° WNW
SPOT 1/Viking Rocket 4.3 23:05:36 46° WSW 23:05:41 46° W 23:10:44 10° NNW
Cosmos 2219 3.4 23:00:03 10° NNW 23:05:03 66° N 23:05:03 66° N
Cosmos 1072 Rocket 4.4 23:05:56 82° SW 23:06:15 86° W 23:12:43 10° N
USA 215 3.1 23:00:55 10° ENE 23:07:30 84° SSE 23:14:02 10° SW
Nadezhda 4 Rocket 4.1 23:05:15 10° N 23:10:46 66° NE 23:10:46 66° NE
H-2A R/B 4.0 23:28:07 25° NW 23:28:07 25° NW 23:30:12 10° NNW
Cosmos 1140 Rocket 4.4 23:23:28 10° NNW 23:27:11 45° N 23:27:11 45° N
Cosmos 2297 Rocket 3.3 23:35:19 10° NNW 23:39:34 38° NNE 23:39:34 38° NNE
USA 267 3.7 23:43:31 51° WSW 23:43:31 51° WSW 23:48:53 10° WNW
CZ-4C R/B 3.3 23:47:08 18° W 23:51:04 44° NNW 23:57:11 10° NE
Cosmos 2369 Rocket 4.1 23:49:56 10° W 23:54:38 26° NW 23:59:20 10° NNE
